CST,Max TemperatureF,Mean TemperatureF,Min TemperatureF,Max Dew PointF,MeanDew PointF,Min DewpointF,Max Humidity, Mean Humidity, Min Humidity, Max Sea Level PressureIn, Mean Sea Level PressureIn, Min Sea Level PressureIn, Max VisibilityMiles, Mean VisibilityMiles, Min VisibilityMiles, Max Wind SpeedMPH, Mean Wind SpeedMPH, Max Gust SpeedMPH,PrecipitationIn, CloudCover, Events, WindDirDegrees
2014-1-1,1,-10,-22,-5,-12,-28,82,76,66,30.40,30.33,30.28,10,10,10,8,1,,0.00,7,,21
2014-1-2,5,-9,-24,-5,-14,-30,86,77,61,30.35,30.31,30.28,10,10,3,9,1,,0.00,3,Snow,6
2014-1-3,17,-4,-25,14,-6,-30,86,74,59,30.27,29.86,29.45,10,10,2,20,7,26,0.00,6,Snow,182
2014-1-4,22,9,-6,21,7,-11,94,80,65,30.06,29.73,29.37,10,8,1,16,9,23,0.01,4,Snow,280
2014-1-5,-5,-13,-21,-10,-20,-28,82,71,56,30.20,30.12,30.04,10,10,7,8,3,,0.00,0,,320
2014-1-6,-17,-24,-30,-27,-31,-37,73,68,59,30.03,29.98,29.93,10,9,4,13,5,17,0.00,4,,273
2014-1-7,-4,-15,-26,-14,-24,-32,82,73,61,30.12,30.00,29.92,10,10,5,10,5,10,0.00,1,,251
2014-1-8,2,-14,-29,-10,-24,-36,84,72,56,30.37,30.26,30.12,10,10,2,7,1,,0.00,0,,283
2014-1-9,14,-8,-31,12,-12,-38,93,72,50,30.36,30.17,29.94,10,10,7,14,4,20,0.00,4,,173
2014-1-10,25,20,14,24,20,13,96,95,93,29.93,29.70,29.41,7,4,2,13,7,21,0.00,8,Snow,169
2014-1-11,28,26,23,26,24,22,97,94,88,29.59,29.45,29.37,10,7,1,9,3,16,0.03,8,Snow,279
2014-1-12,36,28,21,28,25,21,99,85,69,29.60,29.46,29.35,10,9,1,16,8,22,0.00,4,,196
2014-1-13,29,25,21,27,20,14,96,78,61,29.59,29.50,29.41,10,10,10,12,3,16,0.00,6,,273
2014-1-14,20,15,10,17,12,4,89,81,74,29.92,29.70,29.52,10,8,1,22,7,28,0.00,8,Snow,8
2014-1-15,10,7,4,7,1,-3,87,77,65,29.95,29.78,29.38,10,9,2,15,8,25,0.00,7,Snow,241
2014-1-16,26,16,6,24,11,2,94,86,77,29.63,29.41,29.27,10,6,1,16,8,23,0.01,8,Snow,251
2014-1-17,15,4,-7,10,5,-12,93,82,75,29.87,29.79,29.63,10,8,2,12,6,17,0.00,7,Snow,337
2014-1-18,19,6,-8,10,3,-12,89,81,64,29.79,29.73,29.58,10,9,3,13,2,21,0.00,4,Snow,171
2014-1-19,27,18,10,23,17,7,93,87,80,29.62,29.47,29.38,10,10,3,14,9,23,0.00,8,Snow,286
2014-1-20,11,3,-5,7,-3,-12,85,73,61,30.23,29.95,29.63,10,9,2,14,5,18,0.00,7,Snow,2
2014-1-21,1,-7,-15,-8,-14,-20,83,71,54,30.26,30.15,29.93,10,9,2,9,4,,0.00,6,Snow,247
2014-1-22,0,-2,-4,-6,-9,-14,81,74,58,30.17,29.91,29.78,10,7,2,14,8,23,0.00,7,Snow,292
2014-1-23,0,-6,-13,-10,-14,-20,82,71,53,30.48,30.36,30.12,10,10,10,12,8,20,0.00,1,,283
2014-1-24,24,6,-12,20,6,-17,91,79,61,30.10,29.55,29.29,10,8,1,15,12,29,0.00,7,Snow,235
2014-1-25,16,6,-4,9,-8,-15,85,64,49,29.65,29.56,29.35,10,8,0,17,11,31,0.00,5,Snow,304
2014-1-26,5,0,-5,-1,-6,-13,83,75,61,29.75,29.41,29.21,10,6,2,18,5,29,0.00,8,Snow,260
2014-1-27,-5,-12,-19,-13,-22,-28,75,63,52,30.17,30.05,29.77,10,9,3,14,9,21,0.00,2,,279
2014-1-28,-3,-13,-23,-16,-21,-28,79,67,52,30.16,30.04,29.90,10,10,10,16,7,24,0.00,2,,243
2014-1-29,21,6,-10,9,-6,-16,77,61,47,29.89,29.76,29.53,10,10,10,20,10,29,0.00,1,,217
2014-1-30,24,12,-1,20,9,-9,94,77,60,29.84,29.57,29.46,10,6,0,14,7,21,0.15,5,Snow,292
2014-1-31,3,-6,-16,-8,-14,-21,85,72,55,30.02,29.96,29.85,10,10,7,13,3,17,0.00,0,,228